Date,TemperatureHighF,TemperatureAvgF,TemperatureLowF,DewpointHighF,DewpointAvgF,DewpointLowF,HumidityHigh,HumidityAvg,HumidityLow,PressureMaxIn,PressureMinIn,WindSpeedMaxMPH,WindSpeedAvgMPH,GustSpeedMaxMPH,PrecipitationSumIn
2013-1-1,69.0,61.6,55.4,66.0,60.7,55.0,100,97,90,30.08,29.92,12,2,0,0.05
2013-1-2,55.3,50.6,44.6,55.0,48.7,44.0,97,92,85,30.20,30.00,6,1,0,0.06
2013-1-3,49.0,42.6,35.7,44.0,38.6,32.0,99,86,60,30.37,30.19,8,1,0,0.33
2013-1-4,59.3,46.0,36.5,43.0,35.5,31.0,87,69,39,30.44,30.31,6,0,0,0.00
2013-1-5,52.5,48.0,41.9,43.0,39.1,36.0,83,71,63,30.36,30.23,4,0,0,0.00
2013-1-6,51.3,48.4,43.5,50.0,45.6,41.0,98,91,71,30.29,30.18,5,0,0,0.08
2013-1-7,62.3,48.6,38.9,47.0,43.3,38.0,98,83,48,30.32,30.18,7,1,0,0.00
2013-1-8,64.0,56.4,45.4,62.0,53.8,43.0,96,91,85,30.22,30.11,12,3,0,0.00
2013-1-9,69.4,66.1,62.2,68.0,65.1,61.0,99,96,93,30.21,30.11,17,7,0,0.00
2013-1-10,67.6,64.5,61.4,67.0,64.4,61.0,100,99,97,30.20,29.96,20,7,0,0.22
2013-1-11,71.8,66.0,61.6,70.0,65.5,61.0,100,98,91,30.12,30.03,10,4,0,0.01
2013-1-12,70.7,67.1,65.0,70.0,66.8,65.0,100,99,94,30.08,29.94,14,7,0,0.00
2013-1-13,69.1,66.1,57.4,69.0,65.8,57.0,100,99,96,30.02,29.92,12,4,0,0.08
2013-1-14,57.3,51.9,44.1,57.0,51.6,44.0,100,99,98,30.11,30.02,6,1,0,0.08
2013-1-15,59.0,52.4,44.7,59.0,52.5,45.0,100,100,100,30.07,29.94,4,0,0,0.06
2013-1-16,52.6,46.1,40.1,53.0,45.4,39.0,100,97,92,30.09,29.95,12,2,0,0.03
2013-1-17,53.5,43.9,37.2,41.0,38.1,34.0,97,81,58,30.39,30.10,15,4,0,0.00
2013-1-18,61.3,45.6,37.4,48.0,40.2,36.0,96,83,56,30.51,30.38,7,1,0,0.00
2013-1-19,65.9,48.2,36.3,53.0,44.1,36.0,99,87,60,30.39,30.25,7,1,0,0.00
2013-1-20,66.2,50.2,38.6,54.0,46.6,38.0,100,89,59,30.27,30.13,8,0,0,0.00
2013-1-21,67.4,53.3,40.1,51.0,45.8,40.0,100,78,49,30.22,30.13,5,0,0,0.00
2013-1-22,61.3,48.7,41.3,45.0,39.3,33.0,96,72,43,30.36,30.20,5,1,0,0.00
2013-1-23,64.6,52.1,38.2,53.0,47.0,38.0,99,84,62,30.40,30.30,9,1,0,0.00
2013-1-24,68.7,57.5,43.6,60.0,53.6,43.0,100,87,72,30.35,30.23,7,1,0,0.00
2013-1-25,69.3,59.5,48.7,61.0,56.5,48.0,100,90,73,30.28,30.15,9,2,0,0.00
2013-1-26,71.7,60.9,51.3,65.0,58.7,51.0,100,93,76,30.25,30.18,6,1,0,0.00
2013-1-27,70.9,61.6,51.4,65.0,59.8,51.0,100,94,79,30.30,30.23,11,3,0,0.00
2013-1-28,74.3,65.6,57.7,68.0,63.8,58.0,100,94,80,30.27,30.13,13,5,0,0.00
2013-1-29,70.2,67.7,65.3,69.0,67.5,65.0,100,99,94,30.12,29.84,16,5,0,0.04
2013-1-30,69.4,59.3,43.6,69.0,55.7,37.0,100,89,62,30.15,29.70,16,5,0,0.61
2013-1-31,61.9,48.0,35.1,41.0,36.6,32.0,95,68,34,30.33,30.16,7,1,0,0.00
2013-2-1,66.0,50.3,41.8,45.0,41.4,38.0,93,74,40,30.41,30.31,5,0,0,0.00
2013-2-2,64.7,50.2,37.5,55.0,44.7,33.0,98,82,66,30.35,30.19,11,2,0,0.00
2013-2-3,66.3,54.2,43.7,54.0,47.9,43.0,100,81,52,30.27,30.13,7,1,0,0.00
2013-2-4,62.3,52.4,41.2,58.0,48.5,40.0,99,88,62,30.12,29.97,6,1,0,0.24
2013-2-5,68.4,60.5,54.3,64.0,59.2,54.0,100,95,84,30.04,29.93,12,1,0,0.36
2013-2-6,67.7,59.6,54.4,63.0,58.5,54.0,100,96,83,30.14,30.00,12,2,0,0.02
2013-2-7,75.2,63.8,54.1,66.0,60.5,54.0,100,90,68,30.00,29.81,15,3,0,1.46
2013-2-8,73.9,60.6,51.9,64.0,57.2,52.0,100,89,70,30.16,29.94,5,0,0,0.00
2013-2-9,66.5,57.3,48.5,60.0,53.4,46.0,96,87,74,30.24,30.09,12,3,0,0.00
2013-2-10,68.6,65.9,61.1,68.0,64.5,60.0,100,95,91,30.08,29.95,18,6,0,0.06
2013-2-11,67.9,61.8,57.4,68.0,61.5,57.0,100,99,95,30.10,29.97,11,2,0,0.35
2013-2-12,69.2,62.0,56.9,69.0,61.9,57.0,100,99,98,30.04,29.75,15,2,0,0.09
2013-2-13,66.4,52.5,42.9,66.0,51.3,42.0,99,96,86,30.07,29.79,14,2,0,0.15
2013-2-14,58.0,47.2,40.2,49.0,43.9,40.0,99,89,65,30.17,30.05,6,0,0,0.00
2013-2-15,64.9,49.7,37.3,48.0,43.5,37.0,100,82,47,30.18,30.06,8,1,0,0.00
2013-2-16,55.5,47.7,34.3,43.0,31.8,21.0,82,57,28,30.30,30.12,17,3,0,0.00
2013-2-17,56.0,44.7,30.9,42.0,34.3,28.0,92,69,48,30.39,30.25,12,2,0,0.00
2013-2-18,64.2,58.8,52.6,60.0,52.6,42.0,93,80,67,30.25,30.00,19,7,0,0.00
2013-2-19,68.7,59.6,45.8,61.0,47.3,32.0,99,68,31,30.22,29.98,19,2,0,0.29
2013-2-20,59.4,48.7,42.4,42.0,35.7,30.0,93,63,40,30.28,30.06,9,2,0,0.00
2013-2-21,65.0,57.1,46.4,64.0,52.9,39.0,98,86,72,30.05,29.83,15,4,0,0.00
2013-2-22,68.9,63.5,58.5,69.0,61.2,55.0,100,92,64,29.97,29.86,10,1,0,1.26
2013-2-23,59.9,57.5,55.2,60.0,56.8,52.0,100,97,88,29.95,29.81,6,1,0,1.05
2013-2-24,67.4,57.9,48.2,61.0,54.9,47.0,99,90,77,29.98,29.79,8,2,0,0.35
2013-2-25,67.1,62.3,59.5,67.0,62.0,59.0,100,99,91,29.80,29.48,20,6,0,3.36
2013-2-26,60.7,54.6,47.8,56.0,44.8,39.0,92,70,54,29.93,29.53,11,3,0,0.00
2013-2-27,63.2,55.1,46.2,55.0,48.5,44.0,97,80,51,30.03,29.92,11,2,0,0.00
2013-2-28,59.7,50.6,41.2,47.0,39.6,33.0,93,68,41,30.11,30.01,9,1,0,0.00
2013-3-1,62.4,49.2,39.5,42.0,36.8,32.0,92,66,36,30.16,30.00,14,2,0,0.00
2013-3-2,51.1,41.5,33.8,34.0,30.9,28.0,88,67,51,30.24,30.12,13,3,0,0.00
2013-3-3,57.6,42.4,30.2,41.0,29.2,26.0,92,64,31,30.27,30.14,9,1,0,0.00
2013-3-4,64.7,54.0,37.7,57.0,48.8,37.0,99,83,65,30.16,29.98,14,4,0,0.00
2013-3-5,76.3,63.3,48.4,64.0,56.1,44.0,92,78,49,30.17,29.94,13,3,0,0.00
2013-3-6,64.9,51.0,39.2,44.0,35.0,32.0,89,57,31,30.30,30.17,12,2,0,0.00
2013-3-7,58.1,48.0,40.2,45.0,38.9,34.0,93,72,50,30.35,30.23,10,1,0,0.00
2013-3-8,67.1,52.3,38.3,51.0,44.8,38.0,99,78,47,30.31,30.19,9,1,0,0.00
2013-3-9,68.3,58.6,47.4,61.0,54.7,46.0,98,88,61,30.20,30.00,15,5,0,0.00
2013-3-10,73.9,66.7,61.8,67.0,63.7,60.0,96,90,79,30.03,29.89,18,9,0,0.00
2013-3-11,66.2,56.6,46.5,65.0,53.2,44.0,98,88,68,30.01,29.83,13,3,0,0.01
2013-3-12,69.7,52.3,40.5,44.0,41.4,39.0,94,70,35,30.20,30.00,7,1,0,0.00
2013-3-13,69.0,53.6,40.4,43.0,35.9,28.0,93,58,23,30.37,30.20,8,1,0,0.00
2013-3-14,68.0,51.7,41.8,44.0,35.3,27.0,91,57,26,30.44,30.30,8,1,0,0.00
2013-3-15,68.9,56.5,42.3,55.0,48.8,42.0,99,78,49,30.31,30.14,8,2,0,0.00
2013-3-16,73.8,63.9,50.1,63.0,58.3,49.0,99,83,64,30.14,29.98,13,3,0,0.00
2013-3-17,74.6,64.2,56.0,66.0,61.5,56.0,100,91,72,30.00,29.87,10,3,0,0.00
2013-3-18,78.6,70.1,64.9,72.0,67.3,62.0,98,91,78,29.91,29.77,9,4,0,0.00
2013-3-19,79.2,65.7,56.7,68.0,58.7,50.0,98,80,52,30.03,29.86,10,2,0,0.01
2013-3-20,71.3,58.7,46.6,50.0,42.5,35.0,79,57,31,30.12,29.97,7,1,0,0.00
2013-3-21,68.3,54.6,44.1,47.0,39.9,34.0,76,59,33,30.07,29.89,9,2,0,0.00
2013-3-22,69.2,61.8,52.6,62.0,56.0,41.0,91,81,57,29.91,29.81,14,5,0,0.02
2013-3-23,74.7,67.5,62.3,71.0,65.9,61.0,99,94,88,29.86,29.58,11,4,0,0.22
2013-3-24,76.1,66.4,49.9,70.0,57.2,36.0,100,75,39,29.96,29.57,16,4,0,0.00
2013-3-25,62.0,49.7,38.9,37.0,31.7,25.0,80,54,25,30.23,29.97,13,2,0,0.00
2013-3-26,59.8,46.9,35.8,33.0,30.8,27.0,79,56,31,30.37,30.23,13,1,0,0.00
2013-3-27,58.0,46.2,34.6,42.0,35.6,31.0,93,69,47,30.45,30.30,9,2,0,0.00
2013-3-28,65.9,51.9,38.6,48.0,43.2,38.0,99,76,38,30.36,30.25,12,2,0,0.00
2013-3-29,70.0,56.2,43.7,60.0,52.0,43.0,100,87,58,30.33,30.21,9,2,0,0.00
2013-3-30,72.9,62.8,50.8,63.0,57.9,50.0,100,85,60,30.21,30.03,17,3,0,0.00
2013-3-31,76.0,65.1,56.4,69.0,63.0,56.0,100,93,79,30.07,29.86,13,2,0,0.21
2013-4-1,79.2,63.7,55.5,65.0,59.8,55.0,100,89,52,30.07,29.92,5,0,0,0.00
2013-4-2,78.1,64.8,51.5,64.0,57.5,51.0,100,80,48,30.12,29.97,12,2,0,0.00
2013-4-3,67.8,60.8,55.5,65.0,59.5,54.0,100,95,87,30.05,29.76,27,3,0,1.93
2013-4-4,65.9,57.5,53.1,60.0,54.7,51.0,98,90,77,29.99,29.88,6,1,0,0.00
2013-4-5,71.8,57.1,49.9,55.0,50.4,47.0,92,79,51,30.13,29.98,6,1,0,0.00
2013-4-6,70.6,59.5,45.0,59.0,52.9,44.0,100,81,58,30.18,30.08,11,2,0,0.00
2013-4-7,77.9,65.9,53.0,65.0,60.8,52.0,99,84,64,30.13,30.01,11,3,0,0.00
2013-4-8,80.6,71.2,64.5,71.0,67.7,64.0,99,89,72,30.05,29.96,14,4,0,0.00
2013-4-9,81.1,73.2,69.7,74.0,70.6,69.0,98,92,77,30.05,29.94,13,6,0,0.00
2013-4-10,82.5,74.2,69.9,74.0,71.1,69.0,97,90,75,30.00,29.86,18,6,0,0.00
2013-4-11,78.7,69.4,56.7,75.0,68.3,56.0,99,96,88,29.85,29.61,17,5,0,0.98
2013-4-12,76.3,61.3,50.6,56.0,52.3,50.0,97,76,40,29.97,29.81,6,0,0,0.00
2013-4-13,77.2,65.0,51.3,61.0,55.8,49.0,92,74,47,30.05,29.90,12,2,0,0.00
2013-4-14,68.4,62.7,57.6,66.0,61.3,57.0,100,95,81,29.91,29.76,14,2,0,1.98
2013-4-15,75.6,70.1,63.0,73.0,69.2,63.0,100,97,91,30.01,29.81,12,3,0,0.00
2013-4-16,82.1,74.2,71.3,77.0,72.4,70.0,100,94,81,30.11,29.99,13,4,0,0.00
2013-4-17,80.6,74.2,69.3,76.0,72.1,69.0,100,93,84,30.10,29.99,19,6,0,0.00
2013-4-18,78.5,74.4,71.0,75.0,72.5,70.0,97,93,86,29.99,29.84,15,5,0,0.00
2013-4-19,75.6,54.9,45.2,74.0,54.3,45.0,100,98,82,30.19,29.80,10,1,0,0.17
2013-4-20,73.1,54.8,41.6,51.0,45.8,41.0,100,76,38,30.27,30.12,7,1,0,0.00
2013-4-21,73.9,60.1,48.7,59.0,51.7,46.0,95,76,47,30.21,30.11,10,2,0,0.00
2013-4-22,77.7,64.3,51.0,69.0,60.5,51.0,99,88,74,30.13,30.04,15,4,0,0.00
2013-4-23,77.3,71.1,67.1,70.0,67.2,64.0,94,87,77,30.10,30.02,15,6,0,0.00
2013-4-24,71.3,69.3,60.7,70.0,68.1,60.0,99,96,92,30.15,30.02,11,2,0,0.37
2013-4-25,79.2,64.3,55.8,67.0,57.8,52.0,97,81,57,30.29,30.15,3,0,0,0.00
2013-4-26,75.9,66.2,56.4,65.0,57.6,50.0,94,74,58,30.28,30.21,12,2,0,0.00
2013-4-27,78.7,70.8,63.4,72.0,68.1,63.0,100,91,78,30.21,30.03,11,3,0,0.00
2013-4-28,76.9,71.4,66.8,74.0,69.7,66.0,99,94,84,30.07,29.94,10,1,0,0.05
2013-4-29,81.1,70.8,63.3,72.0,67.5,63.0,100,90,68,29.98,29.88,10,1,0,0.00
2013-4-30,77.1,70.3,65.9,73.0,68.9,66.0,100,95,85,29.94,29.86,13,3,0,0.76
2013-5-1,77.1,69.3,64.1,74.0,68.7,64.0,100,98,89,29.91,29.82,15,2,0,1.06
2013-5-2,73.0,67.6,64.1,70.0,66.8,64.0,100,97,88,29.96,29.84,13,2,0,0.39
2013-5-3,74.3,63.8,49.0,70.0,62.3,48.0,99,95,83,29.99,29.84,9,2,0,0.14
2013-5-4,71.9,57.7,44.2,54.0,46.7,43.0,97,71,37,30.01,29.87,5,0,0,0.00
2013-5-5,68.4,62.0,51.9,58.0,50.6,45.0,87,68,46,30.02,29.84,7,1,0,0.00
2013-5-6,72.9,61.6,47.5,57.0,51.6,45.0,94,72,50,30.03,29.91,9,1,0,0.00
2013-5-7,75.1,65.3,54.0,66.0,59.8,53.0,99,83,62,30.04,29.96,12,1,0,0.00
2013-5-8,78.8,69.3,57.8,69.0,63.7,57.0,100,83,62,30.11,30.00,11,2,0,0.00
2013-5-9,79.0,72.4,64.7,72.0,68.2,64.0,99,87,77,30.14,30.04,14,3,0,0.00
2013-5-10,72.8,69.5,64.6,71.0,67.9,64.0,99,95,86,30.13,29.86,17,4,0,0.77
2013-5-11,73.7,67.7,62.5,70.0,66.7,62.0,100,96,88,30.05,29.94,5,1,0,0.36
2013-5-12,79.6,69.9,61.1,67.0,62.5,59.0,100,79,56,30.13,30.01,4,0,0,0.00
2013-5-13,79.4,65.3,54.2,58.0,54.2,49.0,91,70,36,30.29,30.12,9,1,0,0.00
2013-5-14,79.0,68.0,54.8,65.0,59.7,54.0,99,77,46,30.28,30.16,11,2,0,0.00
2013-5-15,80.8,71.1,60.2,67.0,63.2,56.0,99,77,53,30.21,30.04,9,2,0,0.00
2013-5-16,80.4,74.8,70.3,74.0,70.8,66.0,95,87,79,30.05,29.95,14,5,0,0.00
2013-5-17,82.0,76.9,73.6,77.0,74.1,72.0,96,91,82,30.05,29.96,11,4,0,0.00
2013-5-18,83.5,78.6,75.6,77.0,74.6,74.0,94,87,76,30.08,29.99,10,4,0,0.00
2013-5-19,81.6,78.2,76.0,77.0,75.3,74.0,94,90,85,30.04,29.97,11,3,0,0.00
2013-5-20,84.7,79.0,75.4,79.0,75.6,74.0,95,89,79,30.03,29.95,13,4,0,0.00
2013-5-21,85.2,79.3,76.1,77.0,74.8,73.0,92,86,74,29.98,29.86,13,5,0,0.00
2013-5-22,79.2,74.5,68.7,75.0,72.0,68.0,99,92,80,30.04,29.89,7,1,0,0.28
2013-5-23,85.0,76.7,67.2,77.0,72.8,67.0,100,88,71,30.04,29.94,7,1,0,0.00
2013-5-24,89.8,79.7,71.8,76.0,71.3,65.0,99,77,56,30.15,30.01,8,0,0,0.00
2013-5-25,83.9,74.2,64.8,69.0,62.2,55.0,93,67,50,30.24,30.13,11,2,0,0.00
2013-5-26,84.5,74.7,63.6,73.0,67.4,63.0,99,80,55,30.19,30.11,9,2,0,0.00
2013-5-27,84.3,79.3,76.7,74.0,70.2,66.0,88,74,54,30.14,30.05,12,6,0,0.00
2013-5-28,85.2,78.0,69.7,75.0,70.7,67.0,91,78,64,30.09,30.01,12,4,0,0.00
2013-5-29,84.7,79.0,75.9,78.0,74.9,72.0,97,87,78,30.04,29.98,19,8,0,0.30
2013-5-30,82.7,78.7,76.2,78.0,75.1,74.0,97,88,81,30.04,29.97,18,8,0,0.10
2013-5-31,84.1,79.5,77.5,79.0,76.3,75.0,95,90,84,30.03,29.95,16,7,0,0.14
2013-6-1,86.2,80.9,77.4,80.0,77.2,75.0,95,88,80,29.99,29.93,10,4,0,0.00
2013-6-2,87.2,77.8,68.2,77.0,73.7,68.0,99,88,69,30.01,29.86,9,1,0,0.57
2013-6-3,88.4,79.3,72.0,80.0,75.5,72.0,99,88,73,29.92,29.82,10,1,0,0.02
2013-6-4,88.2,81.0,75.2,81.0,77.3,75.0,100,89,75,29.93,29.87,13,4,0,0.03
2013-6-5,87.4,82.1,78.5,81.0,77.0,74.0,90,85,77,29.93,29.83,13,4,0,0.00
2013-6-6,91.6,76.6,67.9,76.0,70.9,67.0,98,84,54,29.85,29.72,11,1,0,0.06
2013-6-7,87.4,75.5,69.2,75.0,71.7,69.0,100,89,60,29.89,29.76,2,0,0,0.02
2013-6-8,87.1,78.7,71.5,78.0,74.3,70.0,96,87,69,30.00,29.88,11,2,0,0.02
2013-6-9,82.3,78.0,73.7,77.0,74.8,72.0,97,90,83,29.99,29.92,17,4,0,0.07
2013-6-10,84.5,79.7,72.1,79.0,76.9,71.0,100,91,80,30.04,29.96,12,1,0,0.66
2013-6-11,89.0,82.8,76.2,81.0,77.8,76.0,99,85,68,30.09,30.01,8,1,0,0.00
2013-6-12,90.0,83.0,75.7,81.0,77.4,75.0,99,84,65,30.09,30.00,8,1,0,0.00
2013-6-13,90.9,83.5,76.7,80.0,76.4,71.0,96,80,55,30.05,29.87,7,1,0,0.00
2013-6-14,94.5,84.0,77.9,82.0,76.0,71.0,96,78,56,29.93,29.85,5,0,0,0.00
2013-6-15,89.9,81.4,72.5,82.0,75.0,68.0,93,81,69,30.00,29.92,11,2,0,0.00
2013-6-16,90.6,82.8,76.1,83.0,78.2,75.0,99,86,71,30.03,29.96,9,2,0,0.00
2013-6-17,87.8,83.4,76.9,80.0,77.6,75.0,96,83,72,30.02,29.93,11,2,0,0.00
2013-6-18,89.6,84.2,78.2,78.0,75.6,72.0,91,76,58,30.00,29.88,13,2,0,0.00
2013-6-19,87.3,80.5,72.8,78.0,74.7,71.0,97,83,69,30.02,29.93,5,0,0,0.00
2013-6-20,91.5,77.7,71.6,79.0,74.2,71.0,99,90,63,30.09,30.00,19,1,0,1.07
2013-6-21,88.2,77.3,70.4,81.0,74.5,70.0,100,91,71,30.11,30.04,9,1,0,0.01
2013-6-22,86.1,77.7,72.8,79.0,74.6,71.0,99,90,74,30.10,29.99,13,1,0,0.00
2013-6-23,88.6,80.0,72.9,80.0,76.2,72.0,99,89,71,30.08,30.01,11,2,0,0.11
2013-6-24,88.0,81.5,76.0,80.0,76.7,75.0,99,86,69,30.14,30.05,11,2,0,0.00
2013-6-25,89.9,83.4,77.7,80.0,77.0,76.0,95,81,66,30.11,30.01,13,2,0,0.00
2013-6-26,89.6,83.9,77.1,81.0,78.0,76.0,98,83,70,30.06,29.96,10,2,0,0.02
2013-6-27,93.6,85.1,79.1,83.0,79.2,77.0,94,83,68,30.01,29.90,10,1,0,0.00
2013-6-28,94.4,85.5,80.0,82.0,79.1,77.0,97,82,63,29.93,29.76,6,1,0,0.00
2013-6-29,91.2,82.3,74.5,80.0,75.8,70.0,91,81,64,29.81,29.67,5,0,0,0.00
2013-6-30,94.0,81.2,73.1,76.0,71.3,64.0,97,74,37,29.78,29.70,7,0,0,0.00
2013-7-1,91.1,79.4,69.7,72.0,69.0,67.0,92,72,49,29.90,29.78,5,0,0,0.00
2013-7-2,88.7,79.4,71.3,74.0,70.9,68.0,90,76,56,29.99,29.88,8,1,0,0.00
2013-7-3,87.1,76.4,72.5,78.0,73.9,71.0,100,92,70,30.02,29.92,4,0,0,1.35
2013-7-4,85.6,78.1,72.4,80.0,75.5,72.0,100,92,77,29.98,29.91,10,1,0,0.09
2013-7-5,78.5,74.6,71.3,77.0,73.8,71.0,100,98,89,30.07,29.93,15,2,0,0.38
2013-7-6,76.2,74.5,73.0,76.0,74.4,72.0,100,99,96,30.05,29.96,8,2,0,1.54
2013-7-7,79.4,76.4,73.8,79.0,76.1,74.0,100,99,95,30.12,29.99,9,1,0,0.62
2013-7-8,85.7,77.4,73.9,82.0,76.0,74.0,100,95,83,30.16,30.05,9,1,0,0.00
2013-7-9,87.0,80.1,72.8,80.0,76.4,73.0,100,89,74,30.19,30.08,8,1,0,0.00
2013-7-10,88.0,80.3,76.1,81.0,77.3,74.0,99,91,73,30.10,29.97,6,1,0,0.03
2013-7-11,80.9,75.8,72.1,79.0,75.4,71.0,100,99,87,30.02,29.87,10,0,0,1.13
2013-7-12,87.5,75.5,69.9,80.0,73.6,70.0,100,94,76,29.93,29.84,7,1,0,0.24
2013-7-13,86.3,75.6,70.6,79.0,74.1,71.0,100,95,77,29.95,29.86,13,1,0,0.06
2013-7-14,85.9,78.4,72.0,79.0,75.2,72.0,100,90,73,30.02,29.91,11,1,0,0.01
2013-7-15,88.0,79.6,73.9,80.0,76.2,73.0,99,90,75,30.10,30.00,14,2,0,0.00
2013-7-16,82.8,79.2,74.7,79.0,76.4,74.0,97,91,82,30.17,30.06,21,4,0,0.01
2013-7-17,89.8,79.9,73.9,81.0,76.3,73.0,97,89,72,30.20,30.11,9,1,0,0.01
2013-7-18,88.2,79.0,72.2,80.0,75.5,72.0,99,89,71,30.15,30.00,11,1,0,0.01
2013-7-19,87.2,79.2,72.8,80.0,75.9,72.0,99,90,76,30.06,29.95,12,2,0,0.00
2013-7-20,86.5,80.2,74.1,80.0,76.6,74.0,99,89,76,30.00,29.92,9,1,0,0.00
2013-7-21,83.0,78.3,73.3,79.0,75.8,72.0,100,92,80,30.07,29.98,8,1,0,0.80
2013-7-22,85.9,79.0,73.7,81.0,77.2,73.0,100,94,81,30.06,29.99,9,1,0,0.62
2013-7-23,90.5,82.3,76.8,82.0,78.4,76.0,100,89,66,30.05,29.92,5,1,0,0.01
2013-7-24,90.3,83.0,77.5,81.0,78.1,77.0,97,85,64,29.96,29.86,7,1,0,0.00
2013-7-25,91.4,81.0,75.1,80.0,76.1,74.0,96,86,63,30.01,29.88,6,0,0,0.01
2013-7-26,91.0,80.4,73.0,81.0,75.1,71.0,97,84,61,30.05,29.95,6,0,0,0.00
2013-7-27,82.4,78.3,75.0,80.0,76.9,73.0,100,95,86,29.97,29.87,3,0,0,0.45
2013-7-28,87.0,80.0,74.9,80.0,76.8,74.0,99,90,74,30.00,29.86,7,0,0,0.01
2013-7-29,90.0,81.0,75.3,82.0,77.9,75.0,99,91,71,30.09,29.98,6,0,0,0.00
2013-7-30,89.9,83.1,77.4,82.0,79.1,76.0,99,88,74,30.13,30.05,7,1,0,0.00
2013-7-31,89.7,82.1,78.0,82.0,78.5,75.0,98,89,74,30.10,29.97,9,1,0,0.01
2013-8-1,92.0,82.7,75.7,81.0,78.2,74.0,98,87,67,30.00,29.91,5,0,0,0.00
2013-8-2,92.6,81.7,73.2,84.0,77.3,73.0,99,87,67,30.02,29.91,7,1,0,0.00
2013-8-3,92.3,83.4,75.0,80.0,77.9,74.0,100,84,63,30.06,29.97,7,1,0,0.00
2013-8-4,95.2,85.3,78.0,82.0,78.8,77.0,97,82,60,30.08,29.96,6,0,0,0.00
2013-8-5,94.8,82.8,76.8,83.0,78.3,74.0,97,87,66,30.04,29.92,6,1,0,0.03
2013-8-6,91.7,84.1,77.3,82.0,78.6,76.0,98,84,67,29.99,29.89,9,1,0,0.01
2013-8-7,91.1,82.7,75.9,84.0,79.3,75.0,99,90,74,29.97,29.90,6,1,0,0.00
2013-8-8,91.1,84.2,79.2,82.0,79.6,76.0,98,86,71,29.96,29.90,11,2,0,0.00
2013-8-9,87.9,82.4,77.4,82.0,79.1,77.0,100,90,78,30.02,29.92,16,2,0,0.29
2013-8-10,91.0,84.5,78.5,81.0,78.1,75.0,96,81,68,30.08,29.99,9,2,0,0.00
2013-8-11,90.4,84.6,79.2,81.0,78.4,76.0,94,82,71,30.11,30.05,8,2,0,0.00
2013-8-12,86.7,82.9,77.9,82.0,79.2,76.0,96,88,76,30.10,30.00,7,1,0,0.07
2013-8-13,90.6,79.7,73.9,81.0,76.6,73.0,99,91,69,30.03,29.95,9,1,0,0.03
2013-8-14,78.6,75.4,73.7,77.0,74.6,73.0,100,97,88,29.99,29.89,6,0,0,0.37
2013-8-15,86.9,78.2,73.4,79.0,75.2,73.0,100,91,71,29.99,29.90,3,0,0,0.00
2013-8-16,87.9,78.9,73.6,79.0,75.4,73.0,98,89,69,29.98,29.91,7,1,0,0.07
2013-8-17,77.7,74.8,72.8,75.0,73.5,72.0,99,96,89,29.99,29.91,7,1,0,0.26
2013-8-18,81.7,75.0,71.5,78.0,74.5,72.0,100,98,89,30.00,29.91,17,2,0,3.52
2013-8-19,85.6,77.9,70.3,80.0,75.6,70.0,100,93,80,30.04,29.96,8,1,0,0.01
2013-8-20,87.4,79.8,73.4,81.0,76.9,73.0,100,91,78,30.06,29.98,9,2,0,0.00
2013-8-21,86.3,78.9,73.9,80.0,76.6,73.0,100,93,75,30.13,30.03,9,1,0,0.14
2013-8-22,88.6,80.4,73.9,81.0,76.8,73.0,98,89,70,30.09,29.96,16,2,0,0.06
2013-8-23,82.7,77.4,74.0,79.0,75.8,73.0,100,95,84,30.02,29.93,11,2,0,0.14
2013-8-24,79.2,75.6,73.2,77.0,74.9,73.0,100,97,90,30.11,29.97,14,2,0,0.39
2013-8-25,82.6,76.8,74.4,78.0,75.5,74.0,100,96,83,30.18,30.07,12,2,0,0.22
2013-8-26,84.1,77.4,73.3,76.0,74.1,72.0,100,90,69,30.19,30.09,10,2,0,0.00
2013-8-27,84.6,75.5,67.5,74.0,70.5,67.0,97,85,65,30.12,30.03,8,0,0,0.00
2013-8-28,85.4,75.9,67.0,74.0,70.5,66.0,99,85,63,30.08,30.00,6,0,0,0.00
2013-8-29,87.2,78.0,69.0,74.0,71.4,69.0,100,81,57,30.07,29.98,6,0,0,0.00
2013-8-30,89.1,79.6,71.9,77.0,73.3,71.0,99,82,59,30.03,29.91,7,1,0,0.00
2013-8-31,89.5,80.7,74.2,80.0,75.0,72.0,97,83,68,29.97,29.85,7,0,0,0.00
2013-9-1,91.4,83.1,76.9,80.0,77.7,73.0,98,84,65,29.93,29.85,6,1,0,0.00
2013-9-2,88.9,83.7,76.8,81.0,78.2,76.0,98,84,67,29.98,29.87,10,1,0,0.00
2013-9-3,89.6,82.2,77.2,82.0,78.3,74.0,97,88,74,29.98,29.88,9,1,0,0.00
2013-9-4,88.7,80.6,73.8,81.0,76.7,72.0,99,88,74,30.05,29.95,8,1,0,0.00
2013-9-5,88.8,81.3,75.2,80.0,77.5,75.0,99,88,73,30.11,30.02,10,1,0,0.00
2013-9-6,88.4,80.1,74.6,79.0,76.6,74.0,99,89,73,30.09,29.98,9,1,0,0.00
2013-9-7,88.7,79.5,72.8,78.0,74.7,72.0,99,86,67,30.05,29.96,8,1,0,0.00
2013-9-8,87.9,79.6,72.3,79.0,75.1,71.0,99,87,68,30.00,29.94,6,1,0,0.00
2013-9-9,88.8,79.8,72.4,77.0,74.6,72.0,99,85,63,30.04,29.95,8,1,0,0.00
2013-9-10,89.3,80.7,73.3,79.0,75.0,72.0,98,84,65,30.11,30.01,13,2,0,0.00
2013-9-11,89.8,81.3,74.1,79.0,74.9,73.0,95,81,65,30.11,30.02,15,2,0,0.00
2013-9-12,89.1,80.0,71.2,79.0,74.7,70.0,98,84,68,30.04,29.91,11,1,0,0.00
2013-9-13,89.1,80.5,72.6,77.0,74.7,72.0,99,83,65,29.93,29.81,8,1,0,0.00
2013-9-14,87.1,79.1,73.0,76.0,72.7,69.0,96,81,64,29.98,29.85,8,1,0,0.00
2013-9-15,88.0,79.4,70.6,80.0,73.1,65.0,94,81,71,30.05,29.96,13,2,0,0.00
2013-9-16,88.6,80.2,72.8,80.0,75.9,72.0,99,87,71,30.08,29.99,8,1,0,0.00
2013-9-17,88.5,80.3,73.2,80.0,75.5,72.0,97,86,71,30.07,29.96,11,2,0,0.00
2013-9-18,86.0,78.9,76.2,79.0,76.1,74.0,97,91,78,30.05,29.99,9,2,0,0.00
2013-9-19,85.6,78.7,75.2,79.0,76.2,74.0,98,92,80,30.05,29.97,22,4,0,0.00
2013-9-20,87.1,82.0,79.2,80.0,78.0,76.0,98,88,78,30.00,29.82,21,4,0,0.64
2013-9-21,82.3,77.7,71.9,79.0,76.1,72.0,99,95,85,29.82,29.71,10,1,0,0.65
2013-9-22,80.0,73.5,69.4,73.0,69.6,66.0,99,88,74,29.80,29.72,10,1,0,0.00
2013-9-23,85.2,77.0,68.2,80.0,72.9,64.0,95,87,80,29.85,29.78,10,2,0,0.00
2013-9-24,82.1,78.2,76.2,79.0,77.4,76.0,100,97,90,29.87,29.75,12,2,0,0.68
2013-9-25,84.4,77.0,72.1,78.0,74.3,72.0,100,92,71,29.83,29.75,8,1,0,0.00
2013-9-26,85.5,75.4,66.1,73.0,70.0,65.0,98,84,60,29.93,29.80,7,0,0,0.00
2013-9-27,82.4,75.7,71.3,73.0,71.4,70.0,97,87,69,30.02,29.92,11,1,0,0.00
2013-9-28,82.6,74.2,67.7,72.0,69.1,65.0,96,85,65,30.07,29.99,8,1,0,0.00
2013-9-29,83.0,73.9,66.8,73.0,69.4,66.0,98,86,70,30.04,29.94,9,1,0,0.00
2013-9-30,79.5,75.0,71.0,75.0,71.9,68.0,98,90,84,29.98,29.92,7,1,0,0.03
2013-10-1,84.4,77.1,71.1,78.0,73.4,70.0,98,89,76,30.04,29.95,11,2,0,0.00
2013-10-2,83.4,77.5,73.1,78.0,75.0,72.0,99,92,79,30.05,29.96,12,2,0,0.03
2013-10-3,85.4,78.7,73.7,80.0,75.8,73.0,99,91,80,30.04,29.96,18,4,0,0.02
2013-10-4,85.8,79.3,74.7,80.0,76.5,74.0,99,91,79,30.04,29.96,14,2,0,0.00
2013-10-5,85.8,79.6,75.2,79.0,76.4,75.0,99,90,75,30.01,29.91,17,3,0,0.04
2013-10-6,80.8,75.3,67.9,78.0,73.9,63.0,100,95,83,29.91,29.77,9,1,0,0.39
2013-10-7,74.8,66.6,59.6,63.0,57.4,55.0,90,73,50,30.02,29.89,11,0,0,0.00
2013-10-8,76.3,64.5,54.8,64.0,58.4,53.0,96,82,57,30.03,29.96,5,0,0,0.00
2013-10-9,80.7,69.9,60.0,75.0,67.2,59.0,99,91,80,30.08,29.99,9,1,0,0.00
2013-10-10,80.8,73.1,68.0,74.0,70.0,67.0,97,90,73,30.10,30.00,8,2,0,0.00
2013-10-11,82.3,73.6,66.5,75.0,70.8,66.0,100,91,75,30.05,29.97,9,1,0,0.00
2013-10-12,82.5,74.9,68.1,74.0,71.0,68.0,100,88,70,30.09,29.99,8,1,0,0.00
2013-10-13,83.1,75.4,69.4,76.0,72.5,69.0,100,91,72,30.16,30.05,6,0,0,0.00
2013-10-14,82.9,73.0,65.9,71.0,68.2,65.0,99,86,60,30.11,30.01,8,1,0,0.00
2013-10-15,81.0,73.7,67.3,74.0,69.9,66.0,98,88,73,30.05,29.95,8,1,0,0.00
2013-10-16,82.0,76.3,68.4,74.0,71.2,67.0,97,84,73,30.01,29.92,8,2,0,0.00
2013-10-17,80.5,75.5,66.9,76.0,71.7,64.0,99,88,78,29.97,29.89,11,1,0,0.05
2013-10-18,75.0,68.2,63.5,64.0,62.6,60.0,95,83,65,30.03,29.91,4,0,0,0.00
2013-10-19,67.2,64.0,59.4,67.0,62.6,59.0,100,95,83,30.01,29.91,5,0,0,0.34
2013-10-20,72.5,62.7,55.3,63.0,59.0,55.0,99,89,66,30.06,29.97,5,0,0,0.00
2013-10-21,72.4,65.4,59.6,66.0,61.7,58.0,95,88,77,30.06,29.97,2,0,0,0.00
2013-10-22,77.1,68.5,61.6,67.0,62.2,59.0,96,81,56,29.98,29.89,4,0,0,0.00
2013-10-23,72.7,62.4,53.5,59.0,53.0,48.0,95,74,41,30.13,29.97,4,0,0,0.00
2013-10-24,71.7,60.1,48.8,60.0,53.8,47.0,96,81,57,30.23,30.11,6,1,0,0.00
2013-10-25,66.3,58.6,51.9,56.0,49.1,45.0,97,72,46,30.38,30.21,5,0,0,0.00
2013-10-26,69.2,56.0,45.5,50.0,44.6,37.0,93,69,31,30.31,30.16,5,0,0,0.00
2013-10-27,73.0,60.5,48.5,65.0,57.2,48.0,99,90,69,30.16,30.07,6,0,0,0.04
2013-10-28,76.8,66.1,57.0,69.0,63.3,57.0,100,91,72,30.19,30.08,8,1,0,0.00
2013-10-29,77.0,67.7,59.9,70.0,64.9,59.0,100,91,77,30.25,30.17,11,2,0,0.01
2013-10-30,78.5,70.5,62.3,73.0,68.2,62.0,100,93,80,30.20,30.05,11,2,0,0.00
2013-10-31,78.4,75.0,70.8,74.0,72.4,70.0,99,91,84,30.04,29.83,13,4,0,0.32
2013-11-1,74.0,68.1,57.4,72.0,65.7,55.0,100,92,78,29.92,29.79,8,1,0,0.01
2013-11-2,73.7,61.7,51.5,59.0,53.1,48.0,98,75,51,30.14,29.90,6,0,0,0.00
2013-11-3,66.3,55.4,47.9,54.0,48.9,45.0,94,80,55,30.23,30.14,10,1,0,0.00
2013-11-4,71.2,61.2,48.5,62.0,55.6,47.0,95,82,71,30.25,30.15,14,2,0,0.00
2013-11-5,73.5,66.6,61.7,65.0,60.9,57.0,97,82,73,30.24,30.13,13,4,0,0.00
2013-11-6,77.5,69.3,60.4,72.0,66.2,58.0,94,89,84,30.14,30.05,15,3,0,0.00
2013-11-7,70.8,60.3,49.4,70.0,55.4,43.0,97,84,64,30.28,30.03,8,1,0,0.00
2013-11-8,65.0,53.3,45.4,44.0,41.3,38.0,84,66,40,30.33,30.18,12,1,0,0.00
2013-11-9,72.2,58.8,45.7,63.0,54.1,42.0,96,84,67,30.24,30.16,8,1,0,0.00
2013-11-10,73.9,63.2,54.6,60.0,56.7,52.0,93,81,53,30.26,30.16,6,0,0,0.00
2013-11-11,73.8,60.1,49.2,60.0,53.5,48.0,96,81,45,30.24,30.13,7,1,0,0.00
2013-11-12,70.9,56.1,44.0,57.0,49.1,32.0,99,79,57,30.45,30.17,8,1,0,0.00
2013-11-13,55.3,44.1,36.2,34.0,29.3,24.0,80,58,37,30.51,30.40,7,1,0,0.00
2013-11-14,65.6,52.6,36.3,54.0,43.2,31.0,83,71,58,30.41,30.13,9,1,0,0.00
2013-11-15,71.4,63.5,58.5,69.0,61.5,53.0,99,93,78,30.13,29.98,13,2,0,0.26
2013-11-16,71.3,67.3,62.2,70.0,66.7,62.0,100,98,94,30.07,29.98,18,4,0,0.00
2013-11-17,75.6,70.9,68.3,74.0,70.4,68.0,100,98,90,30.00,29.91,11,2,0,0.13
2013-11-18,71.8,65.5,57.9,72.0,62.8,46.0,100,91,62,30.08,29.94,5,0,0,0.15
2013-11-19,63.1,55.4,46.6,48.0,44.2,40.0,80,67,49,30.15,30.03,8,0,0,0.00
2013-11-20,69.1,55.7,41.0,62.0,51.4,38.0,97,86,71,30.13,30.05,8,1,0,0.00
2013-11-21,71.7,64.2,58.8,67.0,62.1,57.0,96,92,85,30.22,30.12,11,2,0,0.00
2013-11-22,78.0,68.2,62.6,73.0,66.4,62.0,99,94,84,30.21,30.14,10,2,0,0.01
2013-11-23,66.1,60.7,50.4,64.0,58.1,44.0,98,91,77,30.30,30.15,9,0,0,0.00
2013-11-24,54.8,47.6,41.6,44.0,33.8,29.0,79,60,39,30.37,30.27,12,1,0,0.00
2013-11-25,64.7,52.1,41.5,65.0,47.4,30.0,100,84,63,30.29,29.83,15,3,0,0.25
2013-11-26,66.2,51.2,43.7,66.0,50.6,44.0,100,97,93,29.98,29.73,13,2,0,0.91
2013-11-27,49.7,41.5,34.1,43.0,34.7,30.0,99,78,52,30.40,29.98,7,1,0,0.01
2013-11-28,50.4,37.6,29.7,36.0,30.7,27.0,95,78,42,30.49,30.38,2,0,0,0.00
2013-11-29,59.4,41.1,29.0,40.0,33.8,28.0,96,79,37,30.54,30.41,6,0,0,0.00
2013-11-30,67.0,47.7,33.8,54.0,42.8,32.0,97,85,51,30.44,30.25,5,0,0,0.00
2013-12-1,65.4,52.0,41.2,57.0,49.1,40.0,100,90,67,30.27,30.02,5,0,0,0.00
2013-12-2,64.6,57.8,48.2,61.0,54.4,47.0,99,89,62,30.00,29.79,7,1,0,0.00
2013-12-3,68.9,64.3,60.5,66.0,63.2,60.0,99,96,89,29.84,29.75,12,3,0,0.01
2013-12-4,72.7,67.0,62.7,70.0,66.6,63.0,100,98,91,29.96,29.83,6,1,0,0.00
2013-12-5,70.6,67.9,65.7,71.0,67.9,66.0,100,100,98,30.03,29.94,13,3,0,0.02
2013-12-6,70.5,64.7,48.9,70.0,64.6,49.0,100,99,95,30.17,29.95,9,2,0,0.53
2013-12-7,48.7,43.5,41.8,49.0,43.1,41.0,100,98,96,30.30,30.17,6,0,0,0.09
2013-12-8,57.4,50.5,43.1,57.0,50.4,43.0,100,99,97,30.23,30.03,4,0,0,0.00
2013-12-9,68.8,59.9,54.9,64.0,58.5,55.0,100,95,83,30.13,30.03,5,0,0,0.03
2013-12-10,59.6,46.6,40.0,59.0,43.7,38.0,98,90,73,30.35,30.04,6,1,0,0.02
2013-12-11,60.8,48.8,36.9,50.0,41.5,35.0,93,77,57,30.39,30.30,5,0,0,0.01
2013-12-12,57.6,47.8,37.6,42.0,35.0,30.0,78,63,39,30.49,30.37,4,0,0,0.01
2013-12-13,60.8,49.5,35.9,55.0,43.8,29.0,92,80,73,30.37,29.99,13,2,0,0.00
2013-12-14,70.8,63.1,50.6,67.0,61.0,48.0,98,93,85,30.02,29.82,10,2,0,0.05
2013-12-15,52.0,45.0,36.0,48.0,39.8,35.0,94,82,65,30.31,30.02,14,1,0,0.00
2013-12-16,58.6,42.3,32.0,45.0,37.4,31.0,98,85,49,30.36,30.25,4,0,0,0.00
2013-12-17,62.2,45.4,33.4,49.0,39.7,33.0,100,83,49,30.34,30.23,6,0,0,0.00
2013-12-18,62.9,47.6,36.8,50.0,42.6,36.0,99,84,57,30.37,30.23,8,1,0,0.00
2013-12-19,68.9,55.0,39.3,62.0,52.5,39.0,100,92,77,30.23,30.06,12,3,0,0.00
2013-12-20,70.5,66.0,61.0,68.0,65.0,60.0,99,96,91,30.11,29.97,11,3,0,0.00
2013-12-21,69.8,67.2,65.4,70.0,67.1,65.0,100,99,98,29.97,29.81,11,5,0,0.00
2013-12-22,69.0,59.2,54.9,69.0,59.2,55.0,100,100,98,30.12,29.83,12,1,0,1.61
2013-12-23,55.6,47.0,37.1,56.0,45.2,35.0,100,93,84,30.44,30.10,6,1,0,0.12
2013-12-24,53.3,40.5,32.7,37.0,33.5,31.0,94,78,51,30.51,30.37,5,0,0,0.02
2013-12-25,48.8,40.5,31.8,37.0,32.6,29.0,90,74,56,30.41,30.29,5,0,0,0.01
2013-12-26,54.2,45.2,37.4,42.0,36.9,33.0,86,74,51,30.37,30.27,2,0,0,0.03
2013-12-27,61.6,51.3,42.2,43.0,39.8,38.0,86,66,48,30.39,30.25,4,0,0,0.00
2013-12-28,52.2,48.4,45.6,50.0,47.6,41.0,100,97,65,30.26,29.93,5,0,0,0.04
2013-12-29,59.0,50.0,43.7,53.0,48.8,43.0,100,95,79,30.12,29.94,6,0,0,0.06
2013-12-30,55.8,48.7,40.8,52.0,47.3,41.0,100,95,82,30.31,30.11,4,0,0,0.01
2013-12-31,50.2,45.7,43.6,49.0,43.9,42.0,98,93,88,30.42,30.29,3,0,0,0.03
2014-1-1,59.1,51.9,43.7,57.0,51.4,43.0,100,98,93,30.32,30.02,4,0,0,0.02
2014-1-2,58.4,52.2,36.9,58.0,47.6,29.0,100,85,66,30.34,29.92,19,2,0,0.02